Weather History for Maple Lake, MN

Change the Weather History Date:

Monday, March 10, 2014

  Actual Average (KSTC) Record (KSTC)
Temperature  
Mean Temperature 40 °F 27 °F  
Max Temperature 49 °F 36 °F 54 °F (1977)
Min Temperature 33 °F 17 °F -24 °F (1948)
Degree Days  
Heating Degree Days 24 38  
Month to date heating degree days 404  
Since 1 July heating degree days 6850  
Cooling Degree Days 0 0  
Month to date cooling degree days 0  
Year to date cooling degree days 0  
Moisture  
Dew Point 35 °F    
Average Humidity 73    
Maximum Humidity 96    
Minimum Humidity 58    
Precipitation  
Precipitation 0.00 in 0.05 in 0.42 in (1904)
Month to date precipitation 0.39  
Year to date precipitation 1.63  
Snow  
Snow 0.00 in 0.30 in 4.50 in (1951)
Month to date snowfall 3.4  
Since 1 July snowfall 37.6  
Snow Depth -    
Sea Level Pressure  
Sea Level Pressure 29.66 in    
Wind  
Wind Speed 5 mph (West)    
Max Wind Speed 13 mph    
Max Gust Speed 17 mph    
Visibility 10 miles    
Events      
T = Trace of Precipitation, MM = Missing Value Source: NWS Daily Summary

Daily Weather History Graph

Daily Weather History Graph

Search for Another Location

Airport:

Trip Planner

Search our weather history database for the weather conditions in past years. The results will help you decide how hot, cold, wet, or windy it might be!

Date:

Astronomy

Mar. 10, 2014 Rise Set
Actual Time 7:37 AM CDT 7:15 PM CDT
Civil Twilight 7:08 AM CDT 7:44 PM CDT
Nautical Twilight 6:34 AM CDT 8:18 PM CDT
Astronomical Twilight 5:59 AM CDT 8:53 PM CDT
Moon 1:48 PM CDT (3/10) 4:01 AM CDT (3/10)
Length of Visible Light 12h 36m
Length of Day
11h 37m
Waxing Gibbous, 70% of the Moon is Illuminated
Mar 10
Waxing Gibbous
Mar 16
Full
Mar 23
Last Quarter
Mar 30
New
Apr 7
First Quarter

Hourly Weather History & Observations

Time (CDT) Temp. Windchill Dew Point Humidity Pressure Visibility Wind Dir Wind Speed Gust Speed Precip Events Conditions
12:17 AM 38.7 °F 34.3 °F 35.2 °F 87% 29.63 in 10.0 mi SSW 5.8 mph - N/A   Mostly Cloudy
12:37 AM 38.8 °F 33.8 °F 34.7 °F 85% 29.65 in 10.0 mi North 6.9 mph - N/A   Scattered Clouds
12:57 AM 38.8 °F - 34.7 °F 85% 29.64 in 10.0 mi Calm Calm - N/A   Clear
1:17 AM 37.8 °F - 34.5 °F 88% 29.62 in 10.0 mi Calm Calm - N/A   Clear
1:37 AM 37.4 °F - 34.3 °F 89% 29.63 in 10.0 mi Calm Calm - N/A   Clear
1:57 AM 36.5 °F - 33.1 °F 87% 29.64 in 10.0 mi Calm Calm - N/A   Clear
2:17 AM 34.7 °F - 32.4 °F 91% 29.64 in 10.0 mi Calm Calm - N/A   Clear
2:37 AM 33.8 °F - 32.4 °F 94% 29.63 in 10.0 mi Calm Calm - N/A   Clear
2:56 AM 34.9 °F - 33.4 °F 94% 29.61 in 10.0 mi Calm Calm - N/A   Clear
3:17 AM 33.6 °F 29.4 °F 32.5 °F 96% 29.61 in 10.0 mi WSW 4.6 mph - N/A   Clear
3:37 AM 39.0 °F 34.0 °F 34.7 °F 84% 29.62 in 10.0 mi WSW 6.9 mph - N/A   Clear
3:57 AM 39.0 °F 34.8 °F 34.2 °F 83% 29.61 in 10.0 mi WSW 5.8 mph - N/A   Clear
4:16 AM 39.4 °F 35.2 °F 34.5 °F 83% 29.61 in 10.0 mi WSW 5.8 mph - N/A   Clear
4:37 AM 40.1 °F 36.1 °F 34.7 °F 81% 29.60 in 10.0 mi West 5.8 mph - N/A   Clear
4:57 AM 40.3 °F 36.3 °F 34.7 °F 80% 29.60 in 10.0 mi West 5.8 mph - N/A   Clear
5:16 AM 39.9 °F 36.7 °F 34.3 °F 80% 29.60 in 10.0 mi WSW 4.6 mph - N/A   Clear
5:37 AM 39.4 °F 35.2 °F 34.2 °F 82% 29.61 in 10.0 mi West 5.8 mph - N/A   Clear
5:57 AM 41.0 °F 35.8 °F 34.9 °F 79% 29.61 in 10.0 mi West 8.1 mph - N/A   Clear
6:17 AM 41.2 °F 36.6 °F 34.9 °F 78% 29.62 in 10.0 mi West 6.9 mph - N/A   Clear
6:36 AM 41.0 °F 36.4 °F 35.1 °F 79% 29.62 in 10.0 mi West 6.9 mph - N/A   Clear
6:57 AM 40.8 °F 35.6 °F 34.9 °F 79% 29.61 in 10.0 mi West 8.1 mph - N/A   Clear
7:17 AM 41.0 °F 36.4 °F 34.9 °F 79% 29.61 in 10.0 mi WSW 6.9 mph - N/A   Clear
7:37 AM 38.7 °F 34.3 °F 34.0 °F 83% 29.61 in 10.0 mi West 5.8 mph - N/A   Clear
7:56 AM 41.0 °F 35.2 °F 35.1 °F 79% 29.62 in 10.0 mi West 9.2 mph - N/A   Clear
8:17 AM 41.4 °F 36.2 °F 35.2 °F 79% 29.64 in 10.0 mi West 8.1 mph - N/A   Clear
8:37 AM 42.6 °F 37.8 °F 35.6 °F 76% 29.64 in 10.0 mi West 8.1 mph - N/A   Clear
8:57 AM 42.8 °F 38.0 °F 35.6 °F 76% 29.64 in 10.0 mi West 8.1 mph - N/A   Clear
9:16 AM 43.3 °F 38.6 °F 35.8 °F 75% 29.64 in 10.0 mi West 8.1 mph - N/A   Clear
9:37 AM 44.6 °F 39.2 °F 36.3 °F 73% 29.65 in 10.0 mi West 10.4 mph - N/A   Clear
9:57 AM 45.7 °F 41.0 °F 36.5 °F 70% 29.65 in 10.0 mi West 9.2 mph - N/A   Clear
10:17 AM 46.4 °F 41.1 °F 36.7 °F 69% 29.65 in 10.0 mi West 11.5 mph - N/A   Clear
10:37 AM 47.1 °F - 36.7 °F 67% 29.66 in 10.0 mi West 12.7 mph 17.3 mph N/A   Clear
10:56 AM 47.3 °F - 36.7 °F 67% 29.67 in 10.0 mi West 10.4 mph - N/A   Clear
11:17 AM 47.8 °F - 36.9 °F 66% 29.67 in 10.0 mi West 9.2 mph - N/A   Clear
11:37 AM 47.8 °F - 36.9 °F 66% 29.67 in 10.0 mi West 8.1 mph - N/A   Clear
11:57 AM 47.7 °F - 36.5 °F 65% 29.67 in 10.0 mi West 6.9 mph - N/A   Clear
12:16 PM 48.0 °F - 36.7 °F 65% 29.68 in 10.0 mi West 11.5 mph 16.1 mph N/A   Clear
12:37 PM 47.3 °F - 36.5 °F 66% 29.68 in 10.0 mi West 10.4 mph 17.3 mph N/A   Clear
12:57 PM 47.3 °F - 36.3 °F 66% 29.69 in 10.0 mi West 11.5 mph - N/A   Clear
1:16 PM 47.3 °F - 36.3 °F 66% 29.69 in 10.0 mi West 9.2 mph - N/A   Clear
1:37 PM 47.3 °F - 36.3 °F 66% 29.68 in 10.0 mi West 10.4 mph - N/A   Clear
1:56 PM 47.5 °F - 36.1 °F 65% 29.68 in 10.0 mi West 8.1 mph - N/A   Clear
2:17 PM 47.7 °F - 36.1 °F 64% 29.67 in 10.0 mi WNW 5.8 mph - N/A   Clear
2:36 PM 47.8 °F - 36.1 °F 64% 29.67 in 10.0 mi WNW 6.9 mph - N/A   Clear
2:57 PM 48.0 °F - 35.6 °F 62% 29.66 in 10.0 mi WNW 8.1 mph - N/A   Clear
3:17 PM 48.0 °F - 35.4 °F 62% 29.66 in 10.0 mi WNW 6.9 mph - N/A   Clear
3:36 PM 48.4 °F - 35.1 °F 60% 29.66 in 10.0 mi WNW 5.8 mph - N/A   Clear
3:57 PM 47.7 °F - 35.1 °F 62% 29.66 in 10.0 mi WNW 6.9 mph - N/A   Clear
4:17 PM 47.7 °F - 34.9 °F 61% 29.66 in 10.0 mi WNW 4.6 mph - N/A   Clear
4:37 PM 48.2 °F - 34.9 °F 60% 29.66 in 10.0 mi West 3.5 mph - N/A   Clear
4:57 PM 48.7 °F - 34.7 °F 58% 29.66 in 10.0 mi WSW 4.6 mph - N/A   Clear
5:16 PM 47.1 °F - 34.7 °F 62% 29.67 in 10.0 mi WSW 6.9 mph - N/A   Clear
5:37 PM 46.8 °F - 34.9 °F 63% 29.67 in 10.0 mi WSW 4.6 mph - N/A   Clear
5:57 PM 44.8 °F 41.0 °F 34.7 °F 68% 29.67 in 10.0 mi WSW 6.9 mph - N/A   Clear
6:17 PM 45.0 °F 41.2 °F 34.7 °F 67% 29.68 in 10.0 mi West 6.9 mph - N/A   Clear
6:36 PM 44.6 °F 41.4 °F 34.7 °F 68% 29.68 in 10.0 mi West 5.8 mph - N/A   Clear
6:57 PM 44.1 °F 40.8 °F 34.3 °F 69% 29.69 in 10.0 mi West 5.8 mph - N/A   Clear
7:17 PM 43.3 °F 40.7 °F 34.2 °F 70% 29.69 in 10.0 mi West 4.6 mph - N/A   Clear
7:37 PM 43.3 °F 39.9 °F 34.0 °F 70% 29.69 in 10.0 mi WNW 5.8 mph - N/A   Clear
7:56 PM 42.1 °F 39.2 °F 33.8 °F 72% 29.70 in 10.0 mi WNW 4.6 mph - N/A   Clear
8:17 PM 42.6 °F 39.0 °F 33.8 °F 71% 29.70 in 10.0 mi WNW 5.8 mph - N/A   Mostly Cloudy
8:37 PM 42.8 °F 38.6 °F 33.8 °F 70% 29.71 in 10.0 mi WNW 6.9 mph - N/A   Scattered Clouds
8:57 PM 43.0 °F 39.5 °F 34.2 °F 71% 29.71 in 10.0 mi West 5.8 mph - N/A   Scattered Clouds
9:16 PM 42.8 °F 40.1 °F 34.2 °F 72% 29.70 in 10.0 mi West 4.6 mph - N/A   Mostly Cloudy
9:37 PM 42.4 °F 40.7 °F 34.2 °F 72% 29.70 in 10.0 mi West 3.5 mph - N/A   Overcast
9:57 PM 42.6 °F 39.9 °F 34.0 °F 71% 29.70 in 10.0 mi NW 4.6 mph - N/A   Overcast
10:17 PM 42.4 °F - 33.3 °F 70% 29.69 in 10.0 mi Calm Calm - N/A   Overcast
10:37 PM 42.3 °F 40.5 °F 33.1 °F 70% 29.70 in 10.0 mi West 3.5 mph - N/A   Overcast
10:57 PM 42.1 °F 40.2 °F 32.7 °F 69% 29.70 in 10.0 mi West 3.5 mph - N/A   Overcast
11:17 PM 41.9 °F - 32.5 °F 69% 29.70 in 10.0 mi Calm Calm - N/A   Overcast
11:37 PM 42.6 °F 39.9 °F 32.4 °F 67% 29.71 in 10.0 mi West 4.6 mph - N/A   Overcast
11:57 PM 42.8 °F 39.3 °F 32.2 °F 66% 29.72 in 10.0 mi WNW 5.8 mph - N/A   Overcast